RADUGA 19 [-]

Last updated on July 6, 2021, 3:35 p.m. UTC

1 17046U 86082A   21186.64879043 -.00000164  00000-0  00000-0 0  9993
2 17046  13.7710 338.5925 0013712 127.8630  60.2152  0.98461771125114
UTC
Height (km)
Latitude
Longitude
Inclination
Orbital Period
UTC large
Height (km)
Speed (km/s)
/
Latitude / Longitude
Inclination (degrees)
Orbital Period (minutes)
Azimuth
Elevation
Range (km)
Doppler Factor
iOS Compass Heading
iOS Angle